York, NE

11:53 PM CDT on April 30, 2017 (GMT -0500)
York Municipal

Weather History for KJYR - December, 2012

Change the Weather History Date:

Sunday, December 30, 2012

  Actual Average Record
Temperature  
Mean Temperature 20 °F -  
Max Temperature 33 °F 29 °F 67 °F (1956)
Min Temperature 8 °F 11 °F -11 °F (1968)
Degree Days  
Heating Degree Days 44    
Moisture  
Dew Point 19 °F    
Average Humidity 77    
Maximum Humidity 86    
Minimum Humidity 64    
Precipitation  
Precipitation 0.00 in - - ()
Sea Level Pressure  
Sea Level Pressure 30.04 in    
Wind  
Wind Speed 10 mph (SW)    
Max Wind Speed 20 mph    
Max Gust Speed 25 mph    
Visibility 10 miles    
Events      
Averages and records for this station are not official NWS values.
T = Trace of Precipitation, MM = Missing Value Source: NWS Daily Summary

Daily Weather History Graph

Daily Weather History Graph

Search for Another Location

Airport or City:

Trip Planner

Search our weather history database for the weather conditions in past years. The results will help you decide how hot, cold, wet, or windy it might be!

Date:

Astronomy

Dec. 30, 2012 Rise Set
Actual Time 7:54 AM CST 5:11 PM CST
Civil Twilight 7:23 AM CST 5:42 PM CST
Nautical Twilight 6:49 AM CST 6:17 PM CST
Astronomical Twilight 6:16 AM CST 6:50 PM CST
Moon 7:45 PM CST (12/30) 9:03 AM CST (12/30)
Length of Visible Light 10h 18m
Length of Day
9h 17m
Waning Gibbous, 95% of the Moon is Illuminated
Dec 30
Waning Gibbous
Jan 4
Last Quarter
Jan 11
New
Jan 18
First Quarter
Jan 26
Full

Hourly Weather History & Observations

Time (CST) Temp. Windchill Dew Point Humidity Pressure Visibility Wind Dir Wind Speed Gust Speed Precip Events Conditions
12:15 AM 12.2 °F -0.2 °F 6.8 °F 79% 30.21 in 10.0 mi WSW 9.2 mph - N/A   Clear
12:35 AM 10.4 °F - 6.8 °F 85% 30.20 in 10.0 mi Calm Calm - N/A   Clear
12:55 AM 10.4 °F - 5.0 °F 79% 30.19 in 10.0 mi Calm Calm - N/A   Clear
1:15 AM 10.4 °F - 6.8 °F 85% 30.19 in 10.0 mi Calm Calm - N/A   Clear
1:35 AM 8.6 °F - 5.0 °F 85% 30.19 in 10.0 mi Calm Calm - N/A   Clear
1:55 AM 10.4 °F - 5.0 °F 79% 30.18 in 10.0 mi Calm Calm - N/A   Clear
2:15 AM 10.4 °F - 6.8 °F 85% 30.17 in 10.0 mi Calm Calm - N/A   Clear
7:35 AM 26.6 °F 14.3 °F 15.8 °F 64% 30.06 in 10.0 mi South 16.1 mph - N/A   Clear
7:55 AM 26.6 °F 14.3 °F 17.6 °F 69% 30.05 in 10.0 mi South 16.1 mph - N/A   Clear
8:15 AM 26.6 °F 13.8 °F 17.6 °F 69% 30.03 in 10.0 mi South 17.3 mph 21.9 mph N/A   Clear
8:35 AM 26.6 °F 13.4 °F 17.6 °F 69% 30.02 in 10.0 mi South 18.4 mph 24.2 mph N/A   Clear
8:55 AM 28.4 °F 15.8 °F 19.4 °F 69% 30.02 in 10.0 mi South 18.4 mph - N/A   Clear
9:15 AM 28.4 °F 15.8 °F 19.4 °F 69% 30.02 in 10.0 mi South 18.4 mph - N/A   Clear
9:35 AM 28.4 °F 16.2 °F 19.4 °F 69% 30.02 in 10.0 mi South 17.3 mph - N/A   Clear
9:55 AM 28.4 °F 15.4 °F 21.2 °F 74% 30.01 in 10.0 mi South 19.6 mph - N/A   Clear
10:15 AM 30.2 °F 18.9 °F 23.0 °F 75% 30.01 in 10.0 mi South 16.1 mph 25.3 mph N/A   Clear
10:35 AM 30.2 °F 18.9 °F 23.0 °F 75% 30.01 in 10.0 mi SSW 16.1 mph - N/A   Clear
10:55 AM 32.0 °F 21.2 °F 23.0 °F 69% 30.02 in 10.0 mi SSW 16.1 mph - N/A   Clear
11:15 AM 32.0 °F 20.8 °F 23.0 °F 69% 30.01 in 10.0 mi SSW 17.3 mph - N/A   Clear
11:35 AM 32.0 °F 20.8 °F 24.8 °F 75% 30.00 in 10.0 mi SSW 17.3 mph - N/A   Clear
11:55 AM 32.0 °F 22.1 °F 24.8 °F 75% 29.99 in 10.0 mi SSW 13.8 mph 19.6 mph N/A   Clear
12:15 PM 32.0 °F 22.1 °F 24.8 °F 75% 29.97 in 10.0 mi SSW 13.8 mph - N/A   Clear
12:35 PM 32.0 °F 21.2 °F 24.8 °F 75% 29.96 in 10.0 mi SSW 16.1 mph - N/A   Clear
12:55 PM 32.0 °F 21.2 °F 24.8 °F 75% 29.95 in 10.0 mi SW 16.1 mph - N/A   Clear
1:15 PM 33.8 °F 22.8 °F 24.8 °F 70% 29.95 in 10.0 mi SW 18.4 mph 23.0 mph N/A   Clear
1:35 PM 33.8 °F 23.2 °F 24.8 °F 70% 29.95 in 10.0 mi SW 17.3 mph - N/A   Clear
1:55 PM 33.8 °F 23.5 °F 24.8 °F 70% 29.94 in 10.0 mi WSW 16.1 mph - N/A   Clear
2:15 PM 32.0 °F 21.2 °F 24.8 °F 75% 29.93 in 10.0 mi WSW 16.1 mph - N/A   Clear
2:35 PM 32.0 °F 21.6 °F 24.8 °F 75% 29.94 in 10.0 mi WSW 15.0 mph - N/A   Clear
2:55 PM 32.0 °F 21.2 °F 24.8 °F 75% 29.95 in 10.0 mi WSW 16.1 mph - N/A   Clear
3:15 PM 32.0 °F 21.2 °F 24.8 °F 75% 29.95 in 10.0 mi WSW 16.1 mph - N/A   Clear
3:35 PM 30.2 °F 19.8 °F 24.8 °F 80% 29.97 in 10.0 mi WSW 13.8 mph - N/A   Clear
3:55 PM 30.2 °F 19.3 °F 24.8 °F 80% 29.98 in 10.0 mi WSW 15.0 mph - N/A   Clear
4:15 PM 28.4 °F 16.6 °F 23.0 °F 80% 29.99 in 10.0 mi WSW 16.1 mph - N/A   Clear
4:35 PM 28.4 °F 17.0 °F 23.0 °F 80% 30.00 in 10.0 mi WSW 15.0 mph - N/A   Clear
4:55 PM 28.4 °F 17.0 °F 23.0 °F 80% 30.01 in 10.0 mi WSW 15.0 mph - N/A   Clear
5:15 PM 26.6 °F 15.7 °F 23.0 °F 86% 30.02 in 10.0 mi WSW 12.7 mph - N/A   Clear
5:35 PM 26.6 °F 15.2 °F 23.0 °F 86% 30.02 in 10.0 mi WSW 13.8 mph - N/A   Clear
5:55 PM 26.6 °F 16.2 °F 21.2 °F 80% 30.03 in 10.0 mi WSW 11.5 mph - N/A   Clear
6:15 PM 24.8 °F 14.0 °F 19.4 °F 80% 30.04 in 10.0 mi West 11.5 mph - N/A   Clear
6:35 PM 26.6 °F 15.2 °F 21.2 °F 80% 30.04 in 10.0 mi West 13.8 mph - N/A   Clear
6:55 PM 24.8 °F 13.4 °F 21.2 °F 86% 30.05 in 10.0 mi West 12.7 mph - N/A   Clear
7:15 PM 24.8 °F 14.0 °F 19.4 °F 80% 30.06 in 10.0 mi West 11.5 mph - N/A   Clear
7:35 PM 24.8 °F 14.0 °F 19.4 °F 80% 30.05 in 10.0 mi West 11.5 mph - N/A   Clear
7:55 PM 24.8 °F 15.3 °F 19.4 °F 80% 30.05 in 10.0 mi WNW 9.2 mph - N/A   Clear
8:15 PM 24.8 °F 15.3 °F 19.4 °F 80% 30.05 in 10.0 mi WNW 9.2 mph - N/A   Clear
8:35 PM 24.8 °F 20.5 °F 19.4 °F 80% 30.06 in 10.0 mi WNW 3.5 mph - N/A   Clear
8:55 PM 24.8 °F - 17.6 °F 74% 30.05 in 10.0 mi Calm Calm - N/A   Clear
9:15 PM 23.0 °F - 17.6 °F 80% 30.06 in 10.0 mi Calm Calm - N/A   Clear
9:55 PM 23.0 °F - 17.6 °F 80% 30.08 in 10.0 mi Calm Calm - N/A   Clear
10:15 PM 23.0 °F - 17.6 °F 80% 30.09 in 10.0 mi Calm Calm - N/A   Clear
10:35 PM 23.0 °F - 17.6 °F 80% 30.09 in 10.0 mi Calm Calm - N/A   Partly Cloudy
10:55 PM 23.0 °F - 17.6 °F 80% 30.08 in 10.0 mi Calm Calm - N/A   Clear
11:15 PM 23.0 °F 14.7 °F 17.6 °F 80% 30.09 in 10.0 mi North 6.9 mph - N/A   Partly Cloudy
11:35 PM 24.8 °F 16.1 °F 17.6 °F 74% 30.08 in 10.0 mi North 8.1 mph - N/A   Partly Cloudy
11:55 PM 23.0 °F 15.8 °F 17.6 °F 80% 30.09 in 10.0 mi North 5.8 mph - N/A   Partly Cloudy